Location: PSU-Greenbush Astrophysical Observatory
(37.5140°N, 94.9880°W)
Time: 21:27:56
(UTC-06:00)

Altair - Pass Details

Date: 31 January 2020
Orbit: 1502 x 1682 km, 47.2° (Epoch: 18 February)

Event Time Altitude Azimuth Distance (km) Brightness Sun altitude
Rises 11:20:53 0° 293° (WNW) 4,919 9.8 32.5°
Reaches altitude 10° 11:24:10 10° 298° (WNW) 3,940 9.4 32.7°
Maximum altitude 11:34:08 56° 16° (NNE) 1,944 8.2 33.4°
Drops below altitude 10° 11:44:00 10° 93° (E) 3,907 9.9 33.9°
Sets 11:47:13 0° 98° (E) 4,875 10.4 34.0°
